START_TIME,STEP,MOV.,AL01,t_acc.,AL02,t_acc.,E37,t_acc.,H21,t_acc.
1981-08-30 12:00:34.840 ,5,0,0.,24.0,0.,24.0,0.,24.0,0.,24.0
1981-08-30 12:00:58.840 ,6,1,0.,24.0,0.,24.0,0.,24.0,0.,24.0
1981-08-30 12:01:22.840 ,6,0,0.,24.0,0.,24.0,0.,24.0,0.,24.0
1981-08-30 12:01:46.840 ,7,1,10.,24.0,0.,24.0,0.,24.0,0.,24.0
1981-08-30 12:02:10.840 ,7,0,30.,24.0,0.,24.0,0.,24.0,0.,24.0
1981-08-30 12:02:34.840 ,7,1,29.,24.0,0.,24.0,0.,24.0,0.,24.0
1981-08-30 12:02:58.840 ,7,0,44.,24.0,0.,24.0,0.,24.0,0.,24.0
1981-08-30 12:03:22.840 ,6,1,21.,24.0,0.,24.0,0.,24.0,0.,24.0
1981-08-30 12:03:46.840 ,6,0,0.,24.0,0.,24.0,2.,24.0,0.,24.0
1981-08-30 12:04:10.840 ,5,1,0.,24.0,0.,24.0,0.,24.0,0.,24.0
1981-08-30 12:04:34.840 ,5,0,0.,24.0,0.,24.0,2.,24.0,0.,24.0
1981-08-30 12:04:58.840 ,4,1,0.,24.0,0.,24.0,0.,24.0,0.,24.0
1981-08-30 12:05:22.840 ,4,0,0.,24.0,0.,24.0,1.,24.0,0.,24.0
1981-08-30 12:05:46.840 ,3,1,0.,24.0,0.,24.0,0.,24.0,0.,24.0
1981-08-30 12:06:10.840 ,3,0,0.,24.0,0.,24.0,1.,24.0,0.,24.0
1981-08-30 12:06:34.840 ,2,1,0.,24.0,0.,24.0,0.,24.0,0.,24.0
1981-08-30 12:06:58.840 ,2,0,0.,24.0,0.,24.0,0.,24.0,0.,24.0
1981-08-30 12:07:22.840 ,1,1,0.,24.0,0.,24.0,0.,24.0,0.,24.0
1981-08-30 12:07:46.840 ,1,0,0.,24.0,0.,24.0,0.,24.0,0.,24.0
1981-08-30 12:08:10.830 ,0,1,0.,24.0,0.,24.0,0.,24.0,0.,24.0
1981-08-30 12:08:34.840 ,0,0,0.,24.0,0.,24.0,0.,24.0,0.,24.0
1981-08-30 12:08:58.830 ,0,1,0.,24.0,0.,24.0,0.,24.0,0.,24.0
1981-08-30 12:09:22.830 ,0,0,1.,24.0,0.,24.0,0.,24.0,0.,24.0
1981-08-30 12:09:46.830 ,1,1,0.,24.0,0.,24.0,0.,24.0,0.,24.0
1981-08-30 12:10:10.830 ,1,0,0.,24.0,0.,24.0,0.,24.0,0.,24.0
1981-08-30 12:10:34.830 ,2,1,0.,24.0,0.,24.0,1.,24.0,0.,24.0
1981-08-30 12:10:58.830 ,2,0,0.,24.0,0.,24.0,1.,24.0,0.,24.0
1981-08-30 12:11:22.830 ,3,1,0.,24.0,0.,24.0,1.,24.0,0.,24.0
1981-08-30 12:11:46.830 ,4,1,0.,24.0,0.,24.0,0.,24.0,0.,24.0
1981-08-30 12:12:10.830 ,5,1,0.,24.0,0.,24.0,0.,24.0,0.,24.0
1981-08-30 12:12:34.830 ,6,1,0.,24.0,0.,24.0,0.,24.0,0.,24.0
1981-08-30 12:12:58.830 ,7,1,4.,24.0,1.,24.0,0.,24.0,0.,24.0
1981-08-30 12:13:22.830 ,7,1,28.,24.0,0.,24.0,0.,24.0,0.,24.0
1981-08-30 12:13:46.830 ,6,1,30.,24.0,0.,24.0,0.,24.0,0.,24.0
1981-08-30 12:14:10.830 ,5,1,0.,24.0,0.,24.0,0.,24.0,0.,24.0
1981-08-30 12:14:34.830 ,4,1,0.,24.0,0.,24.0,0.,24.0,0.,24.0
1981-08-30 12:14:58.830 ,3,1,0.,24.0,0.,24.0,0.,24.0,0.,24.0
1981-08-30 12:15:22.830 ,2,1,0.,24.0,0.,24.0,0.,24.0,0.,24.0
1981-08-30 12:15:46.830 ,1,1,0.,24.0,0.,24.0,0.,24.0,0.,24.0
1981-08-30 12:16:10.830 ,0,1,0.,24.0,0.,24.0,0.,24.0,0.,24.0
1981-08-30 12:16:34.830 ,0,1,0.,24.0,0.,24.0,1.,24.0,0.,24.0
1981-08-30 12:16:58.830 ,1,1,0.,24.0,0.,24.0,0.,24.0,0.,24.0
1981-08-30 12:17:22.840 ,2,1,0.,24.0,0.,24.0,1.,24.0,0.,24.0
1981-08-30 12:17:46.840 ,3,1,0.,24.0,0.,24.0,0.,24.0,0.,24.0
1981-08-30 12:18:10.840 ,3,0,0.,24.0,0.,24.0,0.,24.0,0.,24.0
1981-08-30 12:18:34.840 ,4,1,0.,24.0,0.,24.0,0.,24.0,0.,24.0
1981-08-30 12:18:58.840 ,4,0,0.,24.0,1.,24.0,1.,24.0,0.,24.0
1981-08-30 12:19:22.840 ,5,1,0.,24.0,0.,24.0,0.,24.0,0.,24.0
1981-08-30 12:19:46.840 ,5,0,0.,24.0,0.,24.0,0.,24.0,0.,24.0
1981-08-30 12:20:10.830 ,6,1,0.,24.0,0.,24.0,0.,24.0,0.,24.0
1981-08-30 12:20:34.830 ,6,0,0.,24.0,0.,24.0,1.,24.0,0.,24.0
1981-08-30 12:20:58.830 ,7,1,6.,24.0,0.,24.0,0.,24.0,0.,24.0
1981-08-30 12:21:22.830 ,7,0,35.,24.0,0.,24.0,0.,24.0,0.,24.0
1981-08-30 12:21:46.830 ,7,1,32.,24.0,0.,24.0,0.,24.0,0.,24.0
1981-08-30 12:22:10.830 ,7,0,26.,24.0,0.,24.0,1.,24.0,0.,24.0
1981-08-30 12:22:34.830 ,6,1,16.,24.0,0.,24.0,0.,24.0,0.,24.0
1981-08-30 12:22:58.830 ,6,0,0.,24.0,0.,24.0,1.,24.0,0.,24.0
1981-08-30 12:23:22.830 ,5,1,0.,24.0,0.,24.0,1.,24.0,0.,24.0
1981-08-30 12:23:46.830 ,5,0,0.,24.0,0.,24.0,0.,24.0,0.,24.0
1981-08-30 12:24:10.830 ,4,1,0.,24.0,0.,24.0,0.,24.0,0.,24.0
1981-08-30 12:24:34.830 ,4,0,0.,24.0,0.,24.0,0.,24.0,0.,24.0
1981-08-30 12:24:58.830 ,3,1,0.,24.0,0.,24.0,0.,24.0,0.,24.0
1981-08-30 12:25:22.830 ,3,0,0.,24.0,0.,24.0,0.,24.0,0.,24.0
1981-08-30 12:25:46.830 ,2,1,0.,24.0,0.,24.0,1.,24.0,0.,24.0
1981-08-30 12:26:10.830 ,2,0,0.,24.0,0.,24.0,1.,24.0,0.,24.0
1981-08-30 12:26:34.830 ,1,1,1.,24.0,0.,24.0,0.,24.0,0.,24.0
1981-08-30 12:26:58.830 ,1,0,0.,24.0,0.,24.0,0.,24.0,0.,24.0
1981-08-30 12:27:22.830 ,0,1,0.,24.0,0.,24.0,0.,24.0,0.,24.0
1981-08-30 12:27:46.830 ,0,0,0.,24.0,1.,24.0,0.,24.0,0.,24.0
1981-08-30 12:28:10.830 ,0,1,0.,24.0,0.,24.0,0.,24.0,0.,24.0
1981-08-30 12:28:34.830 ,0,0,0.,24.0,0.,24.0,0.,24.0,0.,24.0
1981-08-30 12:28:58.830 ,1,1,0.,24.0,0.,24.0,0.,24.0,0.,24.0
1981-08-30 12:29:22.830 ,1,0,0.,24.0,0.,24.0,0.,24.0,0.,24.0
1981-08-30 12:29:46.830 ,2,1,0.,24.0,0.,24.0,1.,24.0,0.,24.0
1981-08-30 12:30:10.830 ,2,0,0.,24.0,0.,24.0,0.,24.0,0.,24.0
1981-08-30 12:30:34.830 ,3,1,0.,24.0,0.,24.0,0.,24.0,0.,24.0
1981-08-30 12:30:58.830 ,4,1,0.,24.0,1.,24.0,1.,24.0,0.,24.0
1981-08-30 12:31:22.830 ,5,1,1.,24.0,0.,24.0,0.,24.0,0.,24.0
1981-08-30 12:31:46.830 ,6,1,0.,24.0,0.,24.0,0.,24.0,0.,24.0
1981-08-30 12:32:10.830 ,7,1,8.,24.0,0.,24.0,1.,24.0,0.,24.0
1981-08-30 12:32:34.830 ,7,1,22.,24.0,0.,24.0,0.,24.0,0.,24.0
1981-08-30 12:32:58.830 ,6,1,20.,24.0,0.,24.0,0.,24.0,0.,24.0
1981-08-30 12:33:22.830 ,5,1,0.,24.0,0.,24.0,0.,24.0,0.,24.0
1981-08-30 12:33:46.830 ,4,1,0.,24.0,0.,24.0,0.,24.0,0.,24.0
1981-08-30 12:34:10.830 ,3,1,0.,24.0,0.,24.0,1.,24.0,0.,24.0
1981-08-30 12:34:34.830 ,2,1,0.,24.0,0.,24.0,0.,24.0,0.,24.0
1981-08-30 12:34:58.830 ,1,1,0.,24.0,0.,24.0,0.,24.0,0.,24.0
1981-08-30 12:35:22.830 ,0,1,0.,24.0,0.,24.0,0.,24.0,0.,24.0
1981-08-30 12:35:46.830 ,0,1,0.,24.0,0.,24.0,0.,24.0,0.,24.0
1981-08-30 12:36:10.830 ,1,1,0.,24.0,0.,24.0,2.,24.0,0.,24.0
1981-08-30 12:36:34.830 ,2,1,0.,24.0,0.,24.0,2.,24.0,0.,24.0
1981-08-30 12:36:58.830 ,3,1,0.,24.0,0.,24.0,0.,24.0,0.,24.0
1981-08-30 12:37:22.830 ,3,0,0.,24.0,0.,24.0,0.,24.0,0.,24.0
1981-08-30 12:37:46.830 ,4,1,0.,24.0,0.,24.0,0.,24.0,0.,24.0
1981-08-30 12:38:10.830 ,4,0,0.,24.0,0.,24.0,1.,24.0,0.,24.0
1981-08-30 12:38:34.830 ,5,1,0.,24.0,0.,24.0,0.,24.0,0.,24.0
1981-08-30 12:38:58.830 ,5,0,0.,24.0,0.,24.0,0.,24.0,0.,24.0
1981-08-30 12:39:22.830 ,6,1,0.,24.0,0.,24.0,1.,24.0,0.,24.0
1981-08-30 12:39:46.830 ,6,0,0.,24.0,0.,24.0,1.,24.0,0.,24.0
1981-08-30 12:40:10.830 ,7,1,1.,24.0,0.,24.0,2.,24.0,0.,24.0
1981-08-30 12:40:34.830 ,7,0,35.,24.0,0.,24.0,1.,24.0,0.,24.0
1981-08-30 12:40:58.830 ,7,1,38.,24.0,0.,24.0,0.,24.0,0.,24.0
1981-08-30 12:41:22.830 ,7,0,36.,24.0,0.,24.0,0.,24.0,0.,24.0
1981-08-30 12:41:46.830 ,6,1,23.,24.0,0.,24.0,0.,24.0,0.,24.0
1981-08-30 12:42:10.830 ,6,0,0.,24.0,0.,24.0,0.,24.0,0.,24.0
1981-08-30 12:42:34.830 ,5,1,0.,24.0,0.,24.0,0.,24.0,0.,24.0
1981-08-30 12:42:58.830 ,5,0,0.,24.0,0.,24.0,0.,24.0,0.,24.0
1981-08-30 12:43:22.830 ,4,1,0.,24.0,0.,24.0,0.,24.0,0.,24.0
1981-08-30 12:43:46.830 ,4,0,0.,24.0,0.,24.0,0.,24.0,0.,24.0
1981-08-30 12:44:10.830 ,3,1,0.,24.0,0.,24.0,0.,24.0,0.,24.0
1981-08-30 12:44:34.830 ,3,0,0.,24.0,0.,24.0,0.,24.0,0.,24.0
1981-08-30 12:44:58.830 ,2,1,0.,24.0,0.,24.0,0.,24.0,0.,24.0
1981-08-30 12:45:22.830 ,2,0,0.,24.0,0.,24.0,2.,24.0,0.,24.0
1981-08-30 12:45:46.830 ,1,1,0.,24.0,0.,24.0,0.,24.0,0.,24.0
1981-08-30 12:46:10.830 ,1,0,0.,24.0,0.,24.0,0.,24.0,0.,24.0
1981-08-30 12:46:34.830 ,0,1,0.,24.0,0.,24.0,0.,24.0,0.,24.0
1981-08-30 12:46:58.830 ,0,0,0.,24.0,0.,24.0,1.,24.0,0.,24.0
1981-08-30 12:47:22.830 ,0,1,1.,24.0,0.,24.0,0.,24.0,0.,24.0
1981-08-30 12:47:46.830 ,0,0,0.,24.0,0.,24.0,0.,24.0,0.,24.0
1981-08-30 12:48:10.830 ,1,1,0.,24.0,0.,24.0,0.,24.0,0.,24.0
1981-08-30 12:48:34.830 ,1,0,0.,24.0,0.,24.0,0.,24.0,0.,24.0
1981-08-30 12:48:58.830 ,2,1,0.,24.0,0.,24.0,0.,24.0,0.,24.0
1981-08-30 12:49:22.830 ,2,0,0.,24.0,0.,24.0,2.,24.0,0.,24.0
1981-08-30 12:49:46.830 ,3,1,0.,24.0,0.,24.0,0.,24.0,0.,24.0
1981-08-30 12:50:10.830 ,4,1,0.,24.0,0.,24.0,0.,24.0,0.,24.0
1981-08-30 12:50:34.830 ,5,1,0.,24.0,0.,24.0,0.,24.0,0.,24.0
1981-08-30 12:50:58.830 ,6,1,0.,24.0,0.,24.0,1.,24.0,0.,24.0
1981-08-30 12:51:22.830 ,7,1,2.,24.0,0.,24.0,0.,24.0,0.,24.0
1981-08-30 12:51:46.830 ,7,1,25.,24.0,0.,24.0,1.,24.0,0.,24.0
1981-08-30 12:52:10.830 ,6,1,21.,24.0,0.,24.0,0.,24.0,0.,24.0
1981-08-30 12:52:34.830 ,5,1,0.,24.0,0.,24.0,0.,24.0,0.,24.0
1981-08-30 12:52:58.830 ,4,1,0.,24.0,0.,24.0,0.,24.0,0.,24.0
1981-08-30 12:53:22.830 ,3,1,0.,24.0,0.,24.0,0.,24.0,0.,24.0
1981-08-30 12:53:46.830 ,2,1,0.,24.0,0.,24.0,0.,24.0,0.,24.0
1981-08-30 12:54:10.830 ,1,1,0.,24.0,0.,24.0,0.,24.0,0.,24.0
1981-08-30 12:54:34.830 ,0,1,0.,24.0,0.,24.0,0.,24.0,0.,24.0
1981-08-30 12:54:58.830 ,0,1,0.,24.0,0.,24.0,0.,24.0,0.,24.0
1981-08-30 12:55:22.830 ,1,1,0.,24.0,0.,24.0,1.,24.0,0.,24.0
1981-08-30 12:55:46.830 ,2,1,0.,24.0,0.,24.0,0.,24.0,0.,24.0
1981-08-30 12:56:10.830 ,3,1,0.,24.0,1.,24.0,0.,24.0,0.,24.0
1981-08-30 12:56:34.830 ,3,0,0.,24.0,0.,24.0,0.,24.0,0.,24.0
1981-08-30 12:56:58.830 ,4,1,0.,24.0,0.,24.0,1.,24.0,0.,24.0
1981-08-30 12:57:22.830 ,4,0,0.,24.0,0.,24.0,0.,24.0,0.,24.0
1981-08-30 12:57:46.830 ,5,1,0.,24.0,0.,24.0,0.,24.0,0.,24.0
1981-08-30 12:58:10.830 ,5,0,1.,24.0,0.,24.0,0.,24.0,0.,24.0
1981-08-30 12:58:34.830 ,6,1,0.,24.0,0.,24.0,2.,24.0,0.,24.0
1981-08-30 12:58:58.830 ,6,0,0.,24.0,0.,24.0,0.,24.0,0.,24.0
1981-08-30 12:59:22.830 ,7,1,5.,24.0,0.,24.0,0.,24.0,0.,24.0
1981-08-30 12:59:46.830 ,7,0,23.,24.0,0.,24.0,0.,24.0,0.,24.0
1981-08-30 13:00:10.830 ,7,1,25.,24.0,0.,24.0,0.,24.0,0.,24.0
1981-08-30 13:00:34.830 ,7,0,23.,24.0,0.,24.0,0.,24.0,0.,24.0
1981-08-30 13:00:34.830 ,7,0,23.,24.0,0.,24.0,0.,24.0,0.,24.0
1981-08-30 13:00:58.830 ,6,1,25.,24.0,0.,24.0,0.,24.0,0.,24.0
1981-08-30 13:01:22.830 ,6,0,0.,24.0,0.,24.0,0.,24.0,0.,24.0
1981-08-30 13:01:46.830 ,5,1,0.,24.0,0.,24.0,0.,24.0,0.,24.0
1981-08-30 13:02:10.830 ,5,0,0.,24.0,0.,24.0,0.,24.0,0.,24.0
1981-08-30 13:02:34.830 ,4,1,0.,24.0,0.,24.0,0.,24.0,0.,24.0
1981-08-30 13:02:58.830 ,4,0,0.,24.0,0.,24.0,0.,24.0,0.,24.0
1981-08-30 13:03:22.830 ,3,1,0.,24.0,0.,24.0,0.,24.0,0.,24.0
1981-08-30 13:03:46.830 ,3,0,0.,24.0,0.,24.0,0.,24.0,0.,24.0
1981-08-30 13:04:10.830 ,2,1,0.,24.0,0.,24.0,0.,24.0,0.,24.0
1981-08-30 13:04:34.830 ,2,0,0.,24.0,0.,24.0,1.,24.0,0.,24.0
1981-08-30 13:04:58.830 ,1,1,0.,24.0,0.,24.0,3.,24.0,0.,24.0
1981-08-30 13:05:22.830 ,1,0,0.,24.0,0.,24.0,1.,24.0,0.,24.0
1981-08-30 13:05:46.830 ,0,1,0.,24.0,1.,24.0,0.,24.0,0.,24.0
1981-08-30 13:06:10.830 ,0,0,0.,24.0,0.,24.0,0.,24.0,0.,24.0
1981-08-30 13:06:34.830 ,0,1,0.,24.0,0.,24.0,0.,24.0,0.,24.0
1981-08-30 13:06:58.830 ,0,0,0.,24.0,0.,24.0,1.,24.0,0.,24.0
1981-08-30 13:07:22.830 ,1,1,0.,24.0,0.,24.0,0.,24.0,0.,24.0
1981-08-30 13:07:46.830 ,1,0,0.,24.0,0.,24.0,0.,24.0,0.,24.0
1981-08-30 13:08:10.830 ,2,1,0.,24.0,0.,24.0,0.,24.0,0.,24.0
1981-08-30 13:08:34.830 ,2,0,0.,24.0,0.,24.0,0.,24.0,0.,24.0
1981-08-30 13:08:58.830 ,3,1,1.,24.0,0.,24.0,0.,24.0,0.,24.0
1981-08-30 13:09:22.830 ,4,1,0.,24.0,0.,24.0,0.,24.0,0.,24.0
1981-08-30 13:09:46.830 ,5,1,0.,24.0,0.,24.0,0.,24.0,0.,24.0
1981-08-30 13:10:10.830 ,6,1,0.,24.0,0.,24.0,0.,24.0,0.,24.0
1981-08-30 13:10:34.830 ,7,1,8.,24.0,0.,24.0,1.,24.0,0.,24.0
1981-08-30 13:10:58.830 ,7,1,23.,24.0,0.,24.0,1.,24.0,0.,24.0
1981-08-30 13:11:22.830 ,6,1,20.,24.0,0.,24.0,1.,24.0,0.,24.0
1981-08-30 13:11:46.830 ,5,1,0.,24.0,0.,24.0,0.,24.0,0.,24.0
1981-08-30 13:12:10.830 ,4,1,0.,24.0,0.,24.0,0.,24.0,0.,24.0
1981-08-30 13:12:34.830 ,3,1,0.,24.0,0.,24.0,2.,24.0,0.,24.0
1981-08-30 13:12:58.830 ,2,1,1.,24.0,0.,24.0,0.,24.0,0.,24.0
1981-08-30 13:13:22.830 ,1,1,0.,24.0,0.,24.0,0.,24.0,0.,24.0
1981-08-30 13:13:46.830 ,0,1,0.,24.0,0.,24.0,0.,24.0,0.,24.0
1981-08-30 13:14:10.830 ,0,1,0.,24.0,0.,24.0,0.,24.0,0.,24.0
1981-08-30 13:14:34.830 ,1,1,0.,24.0,0.,24.0,0.,24.0,0.,24.0
1981-08-30 13:14:58.830 ,2,1,0.,24.0,0.,24.0,1.,24.0,0.,24.0
1981-08-30 13:15:22.830 ,3,1,0.,24.0,0.,24.0,0.,24.0,0.,24.0
1981-08-30 13:15:46.830 ,3,0,0.,24.0,0.,24.0,0.,24.0,0.,24.0
1981-08-30 13:16:10.830 ,4,1,0.,24.0,0.,24.0,0.,24.0,0.,24.0
1981-08-30 13:16:34.830 ,4,0,0.,24.0,0.,24.0,0.,24.0,0.,24.0
1981-08-30 13:16:58.830 ,5,1,0.,24.0,0.,24.0,0.,24.0,0.,24.0
1981-08-30 13:17:22.830 ,5,0,0.,24.0,0.,24.0,0.,24.0,0.,24.0
1981-08-30 13:17:46.830 ,6,1,0.,24.0,0.,24.0,0.,24.0,0.,24.0
1981-08-30 13:18:10.830 ,6,0,0.,24.0,0.,24.0,0.,24.0,0.,24.0
1981-08-30 13:18:34.830 ,7,1,7.,24.0,0.,24.0,0.,24.0,0.,24.0
1981-08-30 13:18:58.830 ,7,0,29.,24.0,0.,24.0,0.,24.0,0.,24.0
1981-08-30 13:19:22.830 ,7,1,30.,24.0,0.,24.0,0.,24.0,0.,24.0
1981-08-30 13:19:46.830 ,7,0,39.,24.0,0.,24.0,0.,24.0,0.,24.0
1981-08-30 13:20:10.830 ,6,1,25.,24.0,0.,24.0,0.,24.0,0.,24.0
1981-08-30 13:20:34.830 ,6,0,0.,24.0,0.,24.0,0.,24.0,0.,24.0
1981-08-30 13:20:58.830 ,5,1,0.,24.0,0.,24.0,0.,24.0,0.,24.0
1981-08-30 13:21:22.830 ,5,0,0.,24.0,0.,24.0,0.,24.0,0.,24.0
1981-08-30 13:21:46.830 ,4,1,1.,24.0,0.,24.0,0.,24.0,0.,24.0
1981-08-30 13:22:10.830 ,4,0,0.,24.0,0.,24.0,0.,24.0,0.,24.0
1981-08-30 13:22:34.830 ,3,1,0.,24.0,0.,24.0,0.,24.0,0.,24.0
1981-08-30 13:22:58.830 ,3,0,0.,24.0,1.,24.0,1.,24.0,0.,24.0
1981-08-30 13:23:22.830 ,2,1,0.,24.0,0.,24.0,0.,24.0,0.,24.0
1981-08-30 13:23:46.830 ,2,0,0.,24.0,0.,24.0,0.,24.0,0.,24.0
1981-08-30 13:24:10.830 ,1,1,0.,24.0,0.,24.0,0.,24.0,0.,24.0
1981-08-30 13:24:34.830 ,1,0,0.,24.0,0.,24.0,0.,24.0,0.,24.0
1981-08-30 13:24:58.830 ,0,1,1.,24.0,0.,24.0,0.,24.0,0.,24.0
1981-08-30 13:25:22.830 ,0,0,0.,24.0,0.,24.0,0.,24.0,0.,24.0
1981-08-30 13:25:46.830 ,0,1,0.,24.0,0.,24.0,0.,24.0,0.,24.0
1981-08-30 13:26:10.830 ,0,0,0.,24.0,0.,24.0,1.,24.0,0.,24.0
1981-08-30 13:26:34.830 ,1,1,0.,24.0,0.,24.0,0.,24.0,0.,24.0
1981-08-30 13:26:58.830 ,1,0,0.,24.0,0.,24.0,0.,24.0,0.,24.0
1981-08-30 13:27:22.830 ,2,1,0.,24.0,0.,24.0,1.,24.0,0.,24.0
1981-08-30 13:27:46.830 ,2,0,0.,24.0,0.,24.0,1.,24.0,0.,24.0
1981-08-30 13:28:10.830 ,3,1,0.,24.0,0.,24.0,2.,24.0,0.,24.0
1981-08-30 13:28:34.830 ,4,1,0.,24.0,0.,24.0,0.,24.0,0.,24.0
1981-08-30 13:28:58.830 ,5,1,0.,24.0,0.,24.0,0.,24.0,0.,24.0
1981-08-30 13:29:22.830 ,6,1,0.,24.0,0.,24.0,0.,24.0,0.,24.0
1981-08-30 13:29:46.830 ,7,1,5.,24.0,0.,24.0,0.,24.0,0.,24.0
1981-08-30 13:30:10.830 ,7,1,29.,24.0,0.,24.0,0.,24.0,0.,24.0
1981-08-30 13:30:34.830 ,6,1,24.,24.0,0.,24.0,0.,24.0,0.,24.0
1981-08-30 13:30:58.830 ,5,1,0.,24.0,0.,24.0,1.,24.0,0.,24.0
1981-08-30 13:31:22.830 ,4,1,0.,24.0,0.,24.0,0.,24.0,0.,24.0
1981-08-30 13:31:46.830 ,3,1,0.,24.0,0.,24.0,1.,24.0,0.,24.0
1981-08-30 13:32:10.830 ,2,1,0.,24.0,0.,24.0,0.,24.0,0.,24.0
1981-08-30 13:32:34.830 ,1,1,0.,24.0,0.,24.0,0.,24.0,0.,24.0
1981-08-30 13:32:58.830 ,0,1,0.,24.0,1.,24.0,0.,24.0,0.,24.0
1981-08-30 13:33:22.830 ,0,1,0.,24.0,0.,24.0,0.,24.0,0.,24.0
1981-08-30 13:33:46.830 ,1,1,0.,24.0,0.,24.0,0.,24.0,0.,24.0
1981-08-30 13:34:10.830 ,2,1,0.,24.0,0.,24.0,2.,24.0,0.,24.0
1981-08-30 13:34:34.830 ,3,1,0.,24.0,0.,24.0,0.,24.0,0.,24.0
1981-08-30 13:34:58.830 ,3,0,0.,24.0,0.,24.0,0.,24.0,0.,24.0
1981-08-30 13:35:22.830 ,4,1,0.,24.0,0.,24.0,0.,24.0,0.,24.0
1981-08-30 13:35:46.830 ,4,0,0.,24.0,0.,24.0,0.,24.0,0.,24.0
1981-08-30 13:36:10.830 ,5,1,0.,24.0,0.,24.0,0.,24.0,0.,24.0
1981-08-30 13:36:34.830 ,5,0,0.,24.0,0.,24.0,0.,24.0,0.,24.0
1981-08-30 13:36:58.830 ,6,1,0.,24.0,0.,24.0,0.,24.0,0.,24.0
1981-08-30 13:37:22.830 ,6,0,0.,24.0,0.,24.0,0.,24.0,0.,24.0
1981-08-30 13:37:46.830 ,7,1,5.,24.0,0.,24.0,0.,24.0,0.,24.0
1981-08-30 13:38:10.830 ,7,0,33.,24.0,0.,24.0,0.,24.0,0.,24.0
1981-08-30 13:38:34.830 ,7,1,23.,24.0,0.,24.0,0.,24.0,0.,24.0
1981-08-30 13:38:58.830 ,7,0,29.,24.0,0.,24.0,0.,24.0,0.,24.0
1981-08-30 13:39:22.830 ,6,1,22.,24.0,0.,24.0,0.,24.0,0.,24.0
1981-08-30 13:39:46.830 ,6,0,0.,24.0,0.,24.0,0.,24.0,0.,24.0
1981-08-30 13:40:10.830 ,5,1,0.,24.0,0.,24.0,0.,24.0,0.,24.0
1981-08-30 13:40:34.830 ,5,0,0.,24.0,0.,24.0,0.,24.0,0.,24.0
1981-08-30 13:40:58.830 ,4,1,0.,24.0,0.,24.0,0.,24.0,0.,24.0
1981-08-30 13:41:22.830 ,4,0,0.,24.0,0.,24.0,0.,24.0,0.,24.0
1981-08-30 13:41:46.830 ,3,1,0.,24.0,1.,24.0,0.,24.0,0.,24.0
1981-08-30 13:42:10.830 ,3,0,0.,24.0,0.,24.0,0.,24.0,0.,24.0
1981-08-30 13:42:34.830 ,2,1,0.,24.0,0.,24.0,0.,24.0,0.,24.0
1981-08-30 13:42:58.830 ,2,0,0.,24.0,0.,24.0,0.,24.0,0.,24.0
1981-08-30 13:43:22.830 ,1,1,0.,24.0,0.,24.0,1.,24.0,0.,24.0
1981-08-30 13:43:46.830 ,1,0,0.,24.0,0.,24.0,0.,24.0,0.,24.0
1981-08-30 13:44:10.830 ,0,1,0.,24.0,0.,24.0,0.,24.0,0.,24.0
1981-08-30 13:44:34.830 ,0,0,0.,24.0,0.,24.0,0.,24.0,0.,24.0
1981-08-30 13:44:58.830 ,0,1,0.,24.0,0.,24.0,0.,24.0,0.,24.0
1981-08-30 13:45:22.830 ,0,0,0.,24.0,0.,24.0,1.,24.0,0.,24.0
1981-08-30 13:45:46.830 ,1,1,1.,24.0,0.,24.0,0.,24.0,0.,24.0
1981-08-30 13:46:10.830 ,1,0,0.,24.0,0.,24.0,0.,24.0,0.,24.0
1981-08-30 13:46:34.830 ,2,1,0.,24.0,0.,24.0,0.,24.0,0.,24.0
1981-08-30 13:46:58.830 ,2,0,0.,24.0,0.,24.0,0.,24.0,0.,24.0
1981-08-30 13:47:22.830 ,3,1,0.,24.0,0.,24.0,0.,24.0,0.,24.0
1981-08-30 13:47:46.830 ,4,1,0.,24.0,0.,24.0,0.,24.0,0.,24.0
1981-08-30 13:48:10.830 ,5,1,0.,24.0,0.,24.0,0.,24.0,0.,24.0
1981-08-30 13:48:34.830 ,6,1,0.,24.0,0.,24.0,0.,24.0,0.,24.0
1981-08-30 13:48:58.830 ,7,1,5.,24.0,0.,24.0,0.,24.0,0.,24.0
1981-08-30 13:49:22.830 ,7,1,33.,24.0,0.,24.0,0.,24.0,0.,24.0
1981-08-30 13:49:46.830 ,6,1,20.,24.0,0.,24.0,0.,24.0,0.,24.0
1981-08-30 13:50:10.830 ,5,1,0.,24.0,0.,24.0,1.,24.0,0.,24.0
1981-08-30 13:50:34.830 ,4,1,0.,24.0,0.,24.0,0.,24.0,0.,24.0
1981-08-30 13:50:58.830 ,3,1,1.,24.0,0.,24.0,2.,24.0,0.,24.0
1981-08-30 13:51:22.830 ,2,1,0.,24.0,0.,24.0,0.,24.0,0.,24.0
1981-08-30 13:51:46.830 ,1,1,0.,24.0,0.,24.0,1.,24.0,0.,24.0
1981-08-30 13:52:10.830 ,0,1,0.,24.0,0.,24.0,0.,24.0,0.,24.0
1981-08-30 13:52:34.830 ,0,1,0.,24.0,0.,24.0,0.,24.0,0.,24.0
1981-08-30 13:52:58.830 ,1,1,1.,24.0,0.,24.0,0.,24.0,0.,24.0
1981-08-30 13:53:22.830 ,2,1,0.,24.0,0.,24.0,1.,24.0,0.,24.0
1981-08-30 13:53:46.830 ,3,1,0.,24.0,0.,24.0,0.,24.0,0.,24.0
1981-08-30 13:54:10.830 ,3,0,0.,24.0,0.,24.0,0.,24.0,0.,24.0
1981-08-30 13:54:34.830 ,4,1,0.,24.0,0.,24.0,0.,24.0,0.,24.0
1981-08-30 13:54:58.830 ,4,0,0.,24.0,0.,24.0,0.,24.0,0.,24.0
1981-08-30 13:55:22.830 ,5,1,0.,24.0,0.,24.0,0.,24.0,0.,24.0
1981-08-30 13:55:46.830 ,5,0,0.,24.0,0.,24.0,0.,24.0,0.,24.0
1981-08-30 13:56:10.830 ,6,1,0.,24.0,0.,24.0,0.,24.0,0.,24.0
1981-08-30 13:56:34.830 ,6,0,0.,24.0,0.,24.0,2.,24.0,0.,24.0
1981-08-30 13:56:58.830 ,7,1,9.,24.0,0.,24.0,0.,24.0,0.,24.0
1981-08-30 13:57:22.830 ,7,0,36.,24.0,0.,24.0,1.,24.0,0.,24.0
1981-08-30 13:57:46.830 ,7,1,24.,24.0,0.,24.0,0.,24.0,0.,24.0
1981-08-30 13:58:10.830 ,7,0,40.,24.0,0.,24.0,0.,24.0,0.,24.0
1981-08-30 13:58:34.830 ,6,1,29.,24.0,0.,24.0,0.,24.0,0.,24.0
1981-08-30 13:58:58.830 ,6,0,0.,24.0,0.,24.0,1.,24.0,0.,24.0
1981-08-30 13:59:22.830 ,5,1,0.,24.0,0.,24.0,0.,24.0,0.,24.0
1981-08-30 13:59:46.830 ,5,0,0.,24.0,0.,24.0,1.,24.0,0.,24.0
1981-08-30 14:00:10.830 ,4,1,0.,24.0,0.,24.0,1.,24.0,0.,24.0
1981-08-30 14:00:34.830 ,4,0,0.,24.0,0.,24.0,0.,24.0,0.,24.0
1981-08-30 14:00:58.830 ,3,1,0.,24.0,0.,24.0,0.,24.0,0.,24.0
1981-08-30 14:01:22.830 ,3,0,0.,24.0,0.,24.0,0.,24.0,0.,24.0
1981-08-30 14:01:46.830 ,2,1,0.,24.0,0.,24.0,0.,24.0,0.,24.0
1981-08-30 14:02:10.830 ,2,0,0.,24.0,0.,24.0,0.,24.0,0.,24.0
1981-08-30 14:02:34.830 ,1,1,0.,24.0,0.,24.0,0.,24.0,0.,24.0
1981-08-30 14:02:58.830 ,1,0,0.,24.0,1.,24.0,0.,24.0,0.,24.0
1981-08-30 14:03:22.830 ,0,1,0.,24.0,0.,24.0,1.,24.0,0.,24.0
1981-08-30 14:03:46.830 ,0,0,0.,24.0,0.,24.0,0.,24.0,0.,24.0
1981-08-30 14:04:10.830 ,0,1,1.,24.0,0.,24.0,2.,24.0,0.,24.0
1981-08-30 14:04:34.830 ,0,0,0.,24.0,0.,24.0,0.,24.0,0.,24.0
1981-08-30 14:04:58.830 ,1,1,0.,24.0,0.,24.0,1.,24.0,0.,24.0
1981-08-30 14:05:22.830 ,1,0,1.,24.0,0.,24.0,1.,24.0,0.,24.0
1981-08-30 14:05:46.830 ,2,1,1.,24.0,0.,24.0,2.,24.0,0.,24.0
1981-08-30 14:06:10.830 ,2,0,0.,24.0,0.,24.0,0.,24.0,0.,24.0
1981-08-30 14:06:34.830 ,3,1,0.,24.0,0.,24.0,0.,24.0,0.,24.0
1981-08-30 14:06:58.830 ,4,1,0.,24.0,0.,24.0,0.,24.0,0.,24.0
1981-08-30 14:07:22.830 ,5,1,0.,24.0,0.,24.0,0.,24.0,0.,24.0
1981-08-30 14:07:46.830 ,6,1,0.,24.0,0.,24.0,0.,24.0,0.,24.0
1981-08-30 14:08:10.830 ,7,1,5.,24.0,0.,24.0,0.,24.0,0.,24.0
1981-08-30 14:08:34.830 ,7,1,29.,24.0,0.,24.0,1.,24.0,0.,24.0
1981-08-30 14:08:58.830 ,6,1,26.,24.0,0.,24.0,0.,24.0,0.,24.0
1981-08-30 14:09:22.830 ,5,1,0.,24.0,0.,24.0,1.,24.0,0.,24.0
1981-08-30 14:09:46.830 ,4,1,0.,24.0,0.,24.0,0.,24.0,0.,24.0
1981-08-30 14:10:10.830 ,3,1,0.,24.0,0.,24.0,0.,24.0,0.,24.0
1981-08-30 14:10:34.830 ,2,1,0.,24.0,0.,24.0,0.,24.0,0.,24.0
1981-08-30 14:10:58.830 ,1,1,0.,24.0,0.,24.0,1.,24.0,0.,24.0
1981-08-30 14:11:22.830 ,0,1,0.,24.0,0.,24.0,0.,24.0,0.,24.0
1981-08-30 14:11:46.830 ,0,1,0.,24.0,0.,24.0,0.,24.0,0.,24.0
1981-08-30 14:12:10.830 ,1,1,0.,24.0,0.,24.0,0.,24.0,0.,24.0
1981-08-30 14:12:34.830 ,2,1,0.,24.0,0.,24.0,0.,24.0,0.,24.0
1981-08-30 14:12:58.830 ,3,1,0.,24.0,0.,24.0,0.,24.0,0.,24.0
1981-08-30 14:13:22.830 ,3,0,0.,24.0,0.,24.0,1.,24.0,0.,24.0
1981-08-30 14:13:46.830 ,4,1,0.,24.0,0.,24.0,0.,24.0,0.,24.0
1981-08-30 14:14:10.830 ,4,0,0.,24.0,0.,24.0,1.,24.0,0.,24.0
1981-08-30 14:14:34.830 ,5,1,0.,24.0,0.,24.0,1.,24.0,0.,24.0
1981-08-30 14:14:58.830 ,5,0,0.,24.0,0.,24.0,1.,24.0,0.,24.0
1981-08-30 14:15:22.830 ,6,1,0.,24.0,0.,24.0,0.,24.0,0.,24.0
1981-08-30 14:15:46.830 ,6,0,0.,24.0,0.,24.0,0.,24.0,0.,24.0
1981-08-30 14:16:10.830 ,7,1,6.,24.0,1.,24.0,1.,24.0,0.,24.0
1981-08-30 14:16:34.830 ,7,0,26.,24.0,0.,24.0,1.,24.0,0.,24.0
1981-08-30 14:16:58.830 ,7,1,39.,24.0,0.,24.0,2.,24.0,0.,24.0
1981-08-30 14:17:22.830 ,7,0,26.,24.0,0.,24.0,1.,24.0,0.,24.0
1981-08-30 14:17:46.830 ,6,1,30.,24.0,0.,24.0,0.,24.0,0.,24.0
1981-08-30 14:18:10.830 ,6,0,0.,24.0,0.,24.0,0.,24.0,0.,24.0
1981-08-30 14:18:34.830 ,5,1,2.,24.0,0.,24.0,0.,24.0,0.,24.0
1981-08-30 14:18:58.830 ,5,0,0.,24.0,0.,24.0,0.,24.0,0.,24.0
1981-08-30 14:19:22.830 ,4,1,1.,24.0,0.,24.0,0.,24.0,0.,24.0
1981-08-30 14:19:46.830 ,4,0,0.,24.0,0.,24.0,0.,24.0,0.,24.0
1981-08-30 14:20:10.830 ,3,1,0.,24.0,0.,24.0,1.,24.0,0.,24.0
1981-08-30 14:20:34.830 ,3,0,0.,24.0,0.,24.0,0.,24.0,0.,24.0
1981-08-30 14:20:58.830 ,2,1,0.,24.0,0.,24.0,0.,24.0,0.,24.0
1981-08-30 14:21:22.830 ,2,0,1.,24.0,0.,24.0,0.,24.0,0.,24.0
1981-08-30 14:21:46.830 ,1,1,1.,24.0,0.,24.0,2.,24.0,0.,24.0
1981-08-30 14:22:10.830 ,1,0,0.,24.0,0.,24.0,1.,24.0,0.,24.0
1981-08-30 14:22:34.830 ,0,1,0.,24.0,0.,24.0,0.,24.0,0.,24.0
1981-08-30 14:22:58.830 ,0,0,0.,24.0,0.,24.0,1.,24.0,0.,24.0
1981-08-30 14:23:22.830 ,0,1,0.,24.0,0.,24.0,1.,24.0,0.,24.0
1981-08-30 14:23:46.830 ,0,0,0.,24.0,0.,24.0,0.,24.0,0.,24.0
1981-08-30 14:24:10.830 ,1,1,0.,24.0,0.,24.0,1.,24.0,0.,24.0
1981-08-30 14:24:34.830 ,1,0,0.,24.0,0.,24.0,0.,24.0,0.,24.0
1981-08-30 14:24:58.830 ,2,1,0.,24.0,0.,24.0,0.,24.0,0.,24.0
1981-08-30 14:25:22.830 ,2,0,0.,24.0,0.,24.0,2.,24.0,0.,24.0
1981-08-30 14:25:46.830 ,3,1,0.,24.0,0.,24.0,0.,24.0,0.,24.0
1981-08-30 14:26:10.830 ,4,1,0.,24.0,0.,24.0,2.,24.0,0.,24.0
1981-08-30 14:26:34.830 ,5,1,0.,24.0,0.,24.0,1.,24.0,0.,24.0
1981-08-30 14:26:58.830 ,6,1,0.,24.0,0.,24.0,0.,24.0,0.,24.0
1981-08-30 14:27:22.830 ,7,1,10.,24.0,0.,24.0,1.,24.0,0.,24.0
1981-08-30 14:27:46.830 ,7,1,31.,24.0,0.,24.0,0.,24.0,0.,24.0
1981-08-30 14:28:10.830 ,6,1,25.,24.0,0.,24.0,0.,24.0,0.,24.0
1981-08-30 14:28:34.830 ,5,1,0.,24.0,0.,24.0,1.,24.0,0.,24.0
1981-08-30 14:28:58.830 ,4,1,0.,24.0,0.,24.0,1.,24.0,0.,24.0
1981-08-30 14:29:22.830 ,3,1,0.,24.0,0.,24.0,1.,24.0,0.,24.0
1981-08-30 14:29:46.830 ,2,1,0.,24.0,0.,24.0,0.,24.0,0.,24.0
1981-08-30 14:30:10.830 ,1,1,0.,24.0,0.,24.0,0.,24.0,0.,24.0
1981-08-30 14:30:34.830 ,0,1,0.,24.0,0.,24.0,0.,24.0,0.,24.0
1981-08-30 14:30:58.830 ,0,1,0.,24.0,0.,24.0,1.,24.0,0.,24.0
1981-08-30 14:31:22.830 ,1,1,0.,24.0,0.,24.0,0.,24.0,0.,24.0
1981-08-30 14:31:46.830 ,2,1,0.,24.0,0.,24.0,0.,24.0,0.,24.0
1981-08-30 14:32:10.830 ,3,1,0.,24.0,0.,24.0,0.,24.0,0.,24.0
1981-08-30 14:32:34.830 ,3,0,0.,24.0,0.,24.0,0.,24.0,0.,24.0
1981-08-30 14:32:58.830 ,4,1,0.,24.0,0.,24.0,1.,24.0,0.,24.0
1981-08-30 14:33:22.830 ,4,0,0.,24.0,0.,24.0,0.,24.0,0.,24.0
1981-08-30 14:33:46.830 ,5,1,0.,24.0,0.,24.0,0.,24.0,0.,24.0